GW1618 Weather Reports


time (UTC)temp
C
wind
direction
speed
KPH
gust
KPH
rain 1hr
cm
rain 24hr
cm
rain mn
cm
humidity
%
barometer
mb
20260905085501 11 250 1.6 3.2 0.00 0.08 0.00 92 1015.7
20260905085002 11 213 1.6 3.2 0.00 0.08 0.00 92 1015.7
20260905084804 11 257 0.0 3.2 0.00 0.08 0.00 92 1015.7
20260905084249 11 257 1.6 3.2 0.00 0.08 0.00 92 1015.7
20260905083756 11 257 1.6 3.2 0.00 0.08 0.00 92 1015.7
20260905083030 11 257 1.6 4.8 0.00 0.08 0.00 92 1015.7
20260905082003 12 228 3.2 4.8 0.00 0.08 0.00 92 1015.6
20260905081455 12 239 3.2 4.8 0.00 0.08 0.00 92 1015.6
20260905080949 12 223 3.2 4.8 0.00 0.08 0.00 92 1015.5
20260905080453 12 207 3.2 4.8 0.00 0.08 0.00 92 1015.5
20260905075949 12 253 3.2 4.8 0.00 0.08 0.00 92 1015.5
20260905075451 12 269 3.2 4.8 0.00 0.08 0.00 92 1015.5
20260905074942 12 255 1.6 3.2 0.00 0.08 0.00 92 1015.5
20260905074745 12 252 1.6 3.2 0.00 0.08 0.00 92 1015.5
20260905073943 12 259 1.6 4.8 0.00 0.08 0.00 92 1015.5
20260905073440 12 259 1.6 4.8 0.00 0.08 0.00 92 1015.5
20260905073010 12 254 0.0 3.2 0.00 0.08 0.00 92 1015.5
20260905071938 12 252 1.6 3.2 0.00 0.08 0.00 92 1015.5
20260905071437 12 264 0.0 3.2 0.00 0.08 0.00 91 1015.5
20260905070929 12 231 1.6 4.8 0.00 0.08 0.00 91 1015.5
20260905070430 12 231 3.2 4.8 0.00 0.08 0.00 92 1015.5
20260905065929 12 194 3.2 6.4 0.00 0.08 0.08 92 1015.5
20260905065436 12 204 3.2 6.4 0.00 0.08 0.08 91 1015.2
20260905064932 12 233 1.6 6.4 0.00 0.08 0.08 92 1015.2
20260905064714 12 197 1.6 4.8 0.00 0.08 0.08 92 1015.2
20260905063915 12 209 1.6 4.8 0.00 0.08 0.08 92 1015.0
20260905063413 12 236 0.0 3.2 0.00 0.08 0.08 92 1015.0
20260905063203 12 256 0.0 3.2 0.00 0.08 0.08 91 1015.0
20260905062412 13 258 1.6 4.8 0.00 0.08 0.08 91 1014.9
20260905061909 13 256 3.2 6.4 0.00 0.08 0.08 91 1014.9
20260905061407 13 227 4.8 9.7 0.00 0.08 0.08 91 1014.9
20260905061159 13 217 4.8 9.7 0.00 0.08 0.08 91 1014.9
20260905060405 13 229 4.8 8.0 0.00 0.08 0.08 91 1014.9
20260905055903 13 224 4.8 8.0 0.00 0.08 0.08 91 1014.9
20260905055403 13 224 3.2 6.4 0.00 0.08 0.08 91 1014.8
20260905054904 13 215 3.2 6.4 0.00 0.08 0.08 91 1014.8
20260905054404 13 211 4.8 8.0 0.00 0.08 0.08 91 1014.8
20260905053904 13 202 4.8 8.0 0.00 0.08 0.08 91 1014.8
20260905053401 13 223 4.8 8.0 0.00 0.08 0.08 90 1014.8
20260905052906 13 208 4.8 8.0 0.00 0.08 0.08 90 1014.8
20260905052404 13 217 4.8 8.0 0.00 0.08 0.08 90 1014.8
20260905051904 13 204 4.8 8.0 0.00 0.08 0.08 90 1014.8
20260905051401 13 229 3.2 6.4 0.00 0.08 0.08 90 1014.8
20260905051149 13 248 3.2 4.8 0.00 0.08 0.08 89 1014.8
20260905050357 13 235 1.6 4.8 0.00 0.08 0.08 89 1014.8
20260905045857 13 218 3.2 6.4 0.00 0.08 0.08 89 1014.8
20260905045355 13 224 3.2 6.4 0.00 0.08 0.08 88 1014.8
20260905044858 13 217 3.2 4.8 0.00 0.08 0.08 88 1014.8
20260905044339 13 229 4.8 6.4 0.00 0.08 0.08 87 1014.8
20260905043831 14 230 3.2 6.4 0.00 0.08 0.08 87 1014.8
20260905043330 14 208 1.6 4.8 0.00 0.08 0.08 86 1014.8
20260905042831 14 236 0.0 3.2 0.00 0.08 0.08 85 1014.8
20260905042331 14 344 1.6 3.2 0.00 0.08 0.08 84 1014.8
20260905041835 14 346 3.2 4.8 0.00 0.08 0.08 84 1014.8
20260905041329 14 343 4.8 8.0 0.00 0.08 0.08 84 1014.8
20260905040826 14 359 6.4 11.3 0.00 0.08 0.08 84 1014.8
20260905040316 14 14 8.0 12.9 0.00 0.08 0.08 84 1014.8
20260905035852 14 344 4.8 12.9 0.00 0.08 0.08 84 1014.8
20260905034816 14 186 3.2 6.4 0.03 0.08 0.08 84 1014.5
20260905034606 14 207 4.8 9.7 0.05 0.08 0.08 84 1014.5
20260905033807 14 192 4.8 9.7 0.05 0.08 0.08 84 1014.4
20260905033304 14 177 6.4 9.7 0.05 0.08 0.08 84 1014.4
20260905032803 15 241 4.8 9.7 0.08 0.08 0.08 84 1014.4
20260905032306 15 219 4.8 9.7 0.08 0.08 0.08 84 1014.4
20260905031841 15 219 4.8 9.7 0.08 0.08 0.08 83 1014.4
20260905030802 15 207 4.8 9.7 0.08 0.08 0.08 84 1014.4
20260905030302 15 204 4.8 8.0 0.08 0.08 0.08 83 1014.4
20260905025805 15 227 6.4 14.5 0.08 0.08 0.08 83 1014.4
20260905025308 15 230 8.0 16.1 0.05 0.05 0.05 82 1014.3
20260905024801 15 242 8.0 16.1 0.05 0.05 0.05 81 1014.3
20260905024246 15 211 6.4 9.7 0.03 0.03 0.03 81 1014.3
20260905023743 16 250 6.4 11.3 0.03 0.03 0.03 80 1014.3
20260905023235 16 216 6.4 12.9 0.03 0.03 0.03 76 1014.3
20260905022732 16 171 6.4 12.9 0.00 0.00 0.00 75 1014.3
20260905022310 16 164 9.7 17.7 0.00 0.00 0.00 74 1014.1
20260905021232 17 146 12.9 27.4 0.00 0.00 0.00 69 1014.1
20260905020737 18 141 12.9 27.4 0.00 0.00 0.00 62 1013.9
20260905020233 18 141 9.7 24.1 0.00 0.00 0.00 55 1013.9
20260905015727 19 94 9.7 17.7 0.00 0.00 0.00 49 1013.9
20260905015227 19 110 12.9 22.5 0.00 0.00 0.00 50 1013.6
20260905014728 20 53 11.3 22.5 0.00 0.00 0.00 49 1013.6
20260905014226 20 96 12.9 25.7 0.00 0.00 0.00 49 1013.6
20260905013727 20 84 12.9 25.7 0.00 0.00 0.00 48 1013.2
20260905013526 20 44 9.7 22.5 0.00 0.00 0.00 46 1013.2
20260905013024 20 58 8.0 12.9 0.00 0.00 0.00 45 1013.2
20260905012223 20 73 11.3 17.7 0.00 0.00 0.00 46 1012.9
20260905011727 20 97 11.3 17.7 0.00 0.00 0.00 46 1012.9
20260905011225 20 48 9.7 17.7 0.00 0.00 0.00 47 1012.9
20260905010716 20 73 12.9 19.3 0.00 0.00 0.00 47 1012.9
20260905010516 20 53 9.7 19.3 0.00 0.00 0.00 47 1012.9
20260905005711 20 92 9.7 19.3 0.00 0.00 0.00 47 1012.9
20260905005210 20 69 9.7 19.3 0.00 0.00 0.00 48 1012.8
20260905004710 20 348 6.4 14.5 0.00 0.00 0.00 53 1012.8
20260905004208 20 340 4.8 11.3 0.00 0.00 0.00 53 1012.8
20260905003706 20 55 4.8 8.0 0.00 0.00 0.00 47 1012.8
20260905003207 20 301 4.8 8.0 0.00 0.00 0.00 49 1012.8
20260905003014 20 325 3.2 6.4 0.00 0.00 0.00 50 1012.8
20260905002205 20 321 4.8 8.0 0.00 0.00 0.00 51 1012.7
20260905001705 20 327 6.4 8.0 0.00 0.00 0.00 51 1012.7
20260905001209 19 329 6.4 8.0 0.00 0.00 0.00 52 1012.7
20260905001010 19 359 8.0 11.3 0.00 0.00 0.00 53 1012.6
20260905000205 19 14 8.0 11.3 0.00 0.00 0.00 55 1012.6
20260904235707 19 13 6.4 11.3 0.00 0.00 0.00 54 1012.6
20260904235214 20 350 4.8 6.4 0.00 0.00 0.00 54 1012.5
20260904234705 20 333 4.8 6.4 0.00 0.00 0.00 52 1012.5
20260904234206 20 325 4.8 6.4 0.00 0.00 0.00 52 1012.5
20260904233932 20 345 4.8 6.4 0.00 0.00 0.00 52 1012.5
20260904233133 20 327 4.8 6.4 0.00 0.00 0.00 52 1012.5
20260904232925 20 339 3.2 6.4 0.00 0.00 0.00 51 1012.7
20260904232143 20 312 3.2 4.8 0.00 0.00 0.00 52 1012.7
20260904231635 19 306 3.2 4.8 0.00 0.00 0.00 51 1012.7
20260904231136 19 302 3.2 4.8 0.00 0.00 0.00 52 1012.9
20260904230909 19 317 3.2 6.4 0.00 0.00 0.00 53 1012.9
20260904230132 19 329 3.2 6.4 0.00 0.00 0.00 53 1012.9
20260904225636 19 327 4.8 6.4 0.00 0.00 0.00 52 1012.9
20260904225131 19 200 4.8 8.0 0.00 0.00 0.00 53 1012.9
20260904224631 18 209 3.2 8.0 0.00 0.00 0.00 51 1012.9
20260904224133 18 231 4.8 6.4 0.00 0.00 0.00 53 1012.9
20260904223922 18 243 4.8 9.7 0.00 0.00 0.00 56 1012.9
20260904223133 17 209 4.8 9.7 0.00 0.00 0.00 61 1012.9
20260904222629 17 205 3.2 6.4 0.00 0.00 0.00 67 1012.9
20260904222129 17 180 4.8 9.7 0.00 0.00 0.00 69 1012.9
20260904221929 16 194 4.8 9.7 0.00 0.00 0.00 69 1012.9
20260904221130 16 212 4.8 8.0 0.00 0.00 0.00 73 1012.9
20260904220634 16 211 6.4 9.7 0.00 0.00 0.00 73 1012.9
20260904220134 16 221 6.4 11.3 0.00 0.00 0.00 74 1012.9
20260904215618 16 197 6.4 12.9 0.00 0.00 0.00 73 1012.9
20260904215106 16 213 8.0 17.7 0.00 0.00 0.00 71 1012.9
20260904214911 17 175 9.7 17.7 0.00 0.00 0.00 67 1012.9
20260904214103 17 204 9.7 20.9 0.00 0.00 0.00 63 1012.8
20260904213603 18 134 6.4 20.9 0.00 0.00 0.00 60 1012.8
20260904213103 18 221 1.6 8.0 0.00 0.00 0.00 57 1012.8
20260904212602 18 341 1.6 3.2 0.00 0.00 0.00 55 1012.6
20260904212112 17 315 3.2 4.8 0.00 0.00 0.00 58 1012.6
20260904211605 17 327 4.8 6.4 0.00 0.00 0.00 60 1012.6
20260904211102 17 350 6.4 9.7 0.00 0.00 0.00 61 1012.5
20260904210605 17 9 9.7 12.9 0.00 0.00 0.00 63 1012.5
20260904205601 17 359 8.0 11.3 0.00 0.00 0.00 64 1012.6
20260904205102 17 17 9.7 14.5 0.00 0.00 0.00 64 1012.6
20260904204601 17 23 9.7 14.5 0.00 0.00 0.00 65 1012.6
20260904204101 17 21 9.7 17.7 0.00 0.00 0.00 65 1012.8
20260904203850 17 4 12.9 17.7 0.00 0.00 0.00 67 1012.8
20260904203103 16 359 12.9 17.7 0.00 0.00 0.00 68 1012.8
20260904202606 16 26 12.9 17.7 0.00 0.00 0.00 71 1012.7
20260904202058 16 14 14.5 19.3 0.00 0.00 0.00 71 1012.7
20260904201548 16 4 16.1 19.3 0.00 0.00 0.00 71 1012.7
20260904201037 16 9 16.1 19.3 0.00 0.00 0.00 71 1012.7
20260904200535 16 18 14.5 19.3 0.00 0.00 0.00 68 1012.7
20260904200030 16 4 14.5 19.3 0.00 0.00 0.00 71 1012.7
20260904195530 16 4 14.5 19.3 0.00 0.00 0.00 70 1012.4
20260904195325 16 359 11.3 19.3 0.00 0.00 0.00 70 1012.4
20260904194529 17 9 8.0 14.5 0.00 0.00 0.00 68 1012.4
20260904194029 16 20 6.4 9.7 0.00 0.00 0.00 70 1012.6
20260904193530 16 346 9.7 14.5 0.00 0.00 0.00 71 1012.6
20260904193029 16 4 8.0 14.5 0.00 0.00 0.00 70 1012.6
20260904192534 16 342 6.4 9.7 0.00 0.00 0.00 71 1012.8
20260904192020 16 359 4.8 8.0 0.00 0.00 0.00 71 1012.8
20260904191514 16 21 4.8 6.4 0.00 0.00 0.00 72 1012.8
20260904191015 16 359 4.8 8.0 0.00 0.00 0.00 73 1012.8
20260904190806 16 342 6.4 8.0 0.00 0.00 0.00 75 1012.8
20260904190018 15 359 6.4 9.7 0.00 0.00 0.00 76 1012.8
20260904185516 15 359 6.4 9.7 0.00 0.00 0.00 77 1012.9
20260904185014 15 354 6.4 11.3 0.00 0.00 0.00 77 1012.9
20260904184517 15 359 6.4 11.3 0.00 0.00 0.00 78 1012.9
20260904184011 15 359 6.4 9.7 0.00 0.00 0.00 78 1012.9
20260904183514 15 9 6.4 9.7 0.00 0.00 0.00 79 1012.9
20260904183010 15 350 8.0 12.9 0.00 0.00 0.00 80 1012.9
20260904182801 14 341 9.7 16.1 0.00 0.00 0.00 81 1012.9
20260904182010 14 32 11.3 17.7 0.00 0.00 0.00 83 1012.9
20260904181510 14 19 12.9 17.7 0.00 0.00 0.00 83 1012.9
20260904181009 14 13 11.3 19.3 0.00 0.00 0.00 84 1012.9
20260904180511 14 9 9.7 19.3 0.00 0.00 0.00 84 1012.9
20260904180008 14 4 9.7 16.1 0.00 0.00 0.00 84 1012.9
20260904175803 13 16 9.7 16.1 0.00 0.00 0.00 85 1012.9
20260904175008 13 359 8.0 12.9 0.00 0.00 0.00 85 1012.9
20260904174508 13 351 8.0 14.5 0.00 0.00 0.00 85 1012.9
20260904174010 13 9 9.7 17.7 0.00 0.00 0.00 86 1012.9
20260904173809 13 359 12.9 17.7 0.00 0.00 0.00 86 1012.9
20260904173011 13 17 12.9 17.7 0.00 0.00 0.00 86 1012.9
20260904172507 13 21 12.9 17.7 0.00 0.00 0.00 85 1012.8
20260904172006 13 14 12.9 19.3 0.00 0.00 0.00 86 1012.8
20260904171503 13 14 12.9 19.3 0.00 0.00 0.00 85 1012.8
20260904170958 13 359 9.7 17.7 0.00 0.00 0.00 86 1012.8
20260904170456 13 14 8.0 11.3 0.00 0.00 0.00 86 1012.8
20260904165957 13 18 8.0 11.3 0.00 0.00 0.00 86 1012.8
20260904165453 13 18 8.0 11.3 0.00 0.00 0.00 87 1012.8
20260904164955 13 4 8.0 11.3 0.00 0.00 0.00 87 1012.8
20260904164856 13 355 8.0 11.3 0.00 0.00 0.00 87 1012.8
20260904163446 13 9 6.4 9.7 0.00 0.00 0.00 87 1012.7
20260904162944 13 19 6.4 9.7 0.00 0.00 0.00 87 1012.7
20260904162742 13 17 4.8 8.0 0.00 0.00 0.00 87 1012.7
20260904161938 13 359 3.2 4.8 0.00 0.00 0.00 87 1012.7
20260904161435 13 9 3.2 4.8 0.00 0.00 0.00 87 1012.7
20260904160932 13 354 3.2 4.8 0.00 0.00 0.00 87 1012.6
20260904160431 13 298 3.2 4.8 0.00 0.00 0.00 88 1012.6
20260904155934 13 281 1.6 4.8 0.00 0.00 0.00 88 1012.6
20260904155415 13 243 1.6 6.4 0.00 0.00 0.00 88 1012.4
20260904155221 13 292 1.6 6.4 0.00 0.00 0.00 88 1012.4
20260904154415 13 342 0.0 1.6 0.00 0.00 0.00 89 1012.4
20260904153913 12 331 1.6 3.2 0.00 0.00 0.00 89 1012.3
20260904153405 12 331 3.2 6.4 0.00 0.00 0.00 89 1012.3
20260904152904 12 335 3.2 6.4 0.00 0.03 0.00 89 1012.3
20260904152656 12 346 3.2 4.8 0.00 0.03 0.00 89 1012.3
20260904151901 12 344 3.2 4.8 0.00 0.03 0.00 89 1012.3
20260904151401 12 9 1.6 3.2 0.00 0.03 0.00 89 1012.3
20260904150902 12 19 1.6 4.8 0.00 0.03 0.00 89 1012.0
20260904150700 12 26 3.2 6.4 0.00 0.03 0.00 89 1012.0
20260904145845 12 32 3.2 8.0 0.00 0.03 0.00 89 1012.0
20260904145347 12 359 3.2 8.0 0.00 0.03 0.00 89 1011.9
20260904144838 12 13 3.2 6.4 0.00 0.03 0.00 89 1011.9
20260904144334 12 331 3.2 4.8 0.00 0.03 0.00 89 1011.9
20260904143826 12 304 4.8 8.0 0.00 0.03 0.00 89 1011.8
20260904143321 12 321 4.8 11.3 0.00 0.03 0.00 89 1011.8
20260904142814 12 335 6.4 11.3 0.00 0.03 0.00 89 1011.8
20260904142306 12 333 4.8 8.0 0.00 0.03 0.00 89 1011.8
20260904141805 12 4 4.8 8.0 0.00 0.03 0.00 89 1011.8
20260904141305 12 342 4.8 8.0 0.00 0.03 0.00 89 1011.8
20260904140803 12 339 4.8 9.7 0.00 0.05 0.00 89 1011.4
20260904140310 12 359 4.8 9.7 0.00 0.05 0.00 89 1011.4
20260904135306 12 9 3.2 6.4 0.00 0.05 0.00 89 1011.1
20260904134826 12 17 3.2 6.4 0.00 0.05 0.00 89 1011.1
20260904133816 12 348 3.2 4.8 0.00 0.05 0.00 89 1011.1
20260904132749 12 344 1.6 6.4 0.00 0.05 0.00 89 1011.1
20260904132246 12 335 0.0 3.2 0.00 0.05 0.00 88 1010.9
20260904131731 12 335 1.6 3.2 0.00 0.05 0.00 88 1010.9
20260904131230 12 335 1.6 3.2 0.00 0.05 0.00 88 1010.9
20260904130732 12 334 1.6 3.2 0.00 0.05 0.00 88 1010.9
20260904130232 12 306 1.6 3.2 0.00 0.08 0.00 88 1010.9
20260904130023 12 254 1.6 4.8 0.00 0.08 0.00 88 1010.9
20260904125222 12 237 1.6 4.8 0.00 0.08 0.00 88 1011.0
20260904124725 12 244 1.6 4.8 0.00 0.08 0.00 88 1011.0
20260904124210 12 331 1.6 3.2 0.00 0.08 0.00 88 1011.0
20260904123658 12 331 1.6 3.2 0.00 0.08 0.00 88 1010.8
20260904123157 12 347 3.2 6.4 0.00 0.08 0.00 88 1010.8
20260904122658 12 351 3.2 6.4 0.00 0.08 0.00 88 1010.8
20260904122159 12 339 3.2 4.8 0.00 0.08 0.00 88 1010.8
20260904121641 12 345 3.2 4.8 0.00 0.08 0.00 88 1010.8
20260904121435 12 339 3.2 4.8 0.00 0.08 0.00 88 1010.8
20260904120631 12 332 1.6 3.2 0.00 0.08 0.00 88 1010.8
20260904120131 12 323 0.0 1.6 0.00 0.08 0.00 88 1010.8
20260904115631 12 323 1.6 3.2 0.00 0.10 0.00 88 1010.8
20260904115134 12 343 1.6 3.2 0.00 0.10 0.00 88 1010.8
20260904114631 12 354 1.6 3.2 0.00 0.10 0.00 88 1010.8
20260904114146 12 354 1.6 4.8 0.00 0.10 0.00 88 1010.7
20260904113633 12 359 1.6 3.2 0.00 0.13 0.00 88 1010.7
20260904113121 12 333 1.6 3.2 0.00 0.13 0.00 88 1010.7
20260904112917 12 319 1.6 3.2 0.00 0.13 0.00 88 1010.4
20260904112150 12 337 1.6 3.2 0.00 0.13 0.00 88 1010.4
20260904111358 12 334 1.6 4.8 0.00 0.13 0.00 88 1010.3
20260904110613 12 323 3.2 4.8 0.00 0.15 0.00 88 1010.3
20260904110108 12 336 1.6 4.8 0.00 0.15 0.00 88 1010.3
20260904105609 12 19 1.6 3.2 0.00 0.15 0.00 88 1010.3
20260904105043 12 19 1.6 3.2 0.00 0.15 0.00 88 1010.3
20260904104533 12 19 1.6 3.2 0.00 0.15 0.00 87 1010.3
20260904104325 12 19 1.6 3.2 0.00 0.15 0.00 87 1010.2
20260904103511 12 19 1.6 3.2 0.00 0.15 0.00 87 1010.2
20260904103045 12 319 1.6 3.2 0.00 0.15 0.00 87 1010.2
20260904102310 12 319 1.6 3.2 0.00 0.15 0.00 87 1010.2
20260904101515 12 319 1.6 3.2 0.00 0.15 0.00 87 1010.2
20260904101017 12 319 0.0 3.2 0.00 0.15 0.00 86 1010.0
20260904100502 12 319 0.0 1.6 0.00 0.15 0.00 86 1010.0
20260904100005 12 319 0.0 1.6 0.00 0.15 0.00 86 1010.0
20260904095509 12 319 0.0 0.0 0.00 0.15 0.00 85 1009.9
20260904095222 12 319 0.0 1.6 0.00 0.15 0.00 85 1009.9
20260904094444 12 319 0.0 1.6 0.00 0.15 0.00 85 1009.9
20260904093913 12 319 0.0 1.6 0.00 0.15 0.00 85 1010.0
20260904093420 12 319 0.0 1.6 0.00 0.15 0.00 85 1010.0
20260904092905 12 319 1.6 3.2 0.00 0.15 0.00 85 1010.0
20260904092646 12 319 1.6 3.2 0.00 0.15 0.00 85 1010.1
20260904091851 12 321 1.6 4.8 0.00 0.15 0.00 84 1010.1
20260904091352 12 314 3.2 4.8 0.00 0.15 0.00 84 1010.1
20260904091118 12 323 3.2 4.8 0.00 0.15 0.00 84 1010.1
20260904090339 12 303 3.2 8.0 0.00 0.15 0.00 83 1010.1
20260904085829 13 294 4.8 8.0 0.00 0.15 0.00 83 1010.1